STARLINK-30172, 57410

Orbit data source: Space-Track

STARLINK-30172, 57410 is a payload satellite owned by SpaceX/Seattle (US) in LEO that was launched on Thu, 20 Jul 2023 UTC via an FALCON 9 launch vehicle from the Air Force Western Test Range (AFWTR). Payload-class satellites include a variety of spacecraft equipped with specific instruments for various scientific and technological missions. These include communications satellites like Starlink; space stations such as the ISS; scientific satellites like the Hubble; Earth observation satellites from companies like Planet Labs, Umbra, and HawkEye 360; GPS; miniature CubeSats for education and research; and military/defense satellites.

Loading next visibility...
Identifier
57410, 2023-102G
Orbit
LEO
Country
Flag of USUS
Related business
Manufacturer
SpaceX/Seattle
Mission
Operational Commercial Communications
Bus & Motor
STARLINK V2M, Unknown motor
Mass
730 kg wet, ~700 kg dry
Launch date (UTC)
2023-07-20 (3 years ago)
Launch vehicle
FALCON 9
Launch site
Air Force Western Test Range (AFWTR)
Object type
Payload
Rocket body
Debris
Shape & HBR
Box + 2 Pan, 17.7 m
Radar Cross Section
33.884 m², Large (>1 m²)

Expand to show TLE details & history
Last TLE update: 2 days ago

TLE from 2 days ago
0 STARLINK-30172
1 57410U 23102G   26171.29303617 -.00000837  00000-0 -20878-4 0  9992
2 57410  43.0056  29.8176 0001431 271.2662  88.8026 15.27582022161920
Epoch: 2026-06-20T07:01Z
TLE epoch observation values (Epoch: 2026-06-20T07:01:58.325Z)
Latitude
0.00001°
Longitude
15.81485°
Altitude
482.799 km
Speed
7.626 km/s
True Right ascension
01h 59m 16s
True Declination
0° 00' 00"
Sunlit
Object was in daylight at epoch
Visualization orbit readout
Latitude
Unknown
Longitude
Unknown
Altitude
Unknown
Speed
Unknown
Apparent Right ascension
Unknown
Apparent Declination
Unknown
Sunlit
N/A
Visualization observer readout
Local Sidereal Time
21:32:31
Azimuth
Unknown
Elevation
Unknown
Doppler factor
Unknown
Orbital elements
Apogee altitude
485.969 km
Perigee altitude
484.005 km
Semi-major axis
6,863.124 km
Eccentricity
0.00014
Inclination
43.0056°
RAAN
29.8176°
Arg. of periapsis
271.2662°
True anomaly
88.81899°
Mean anomaly
88.8026°
Eccentric anomaly
88.8108°
Mean motion
3.81734 °/min
Orbital period
94.31 mins
BSTAR
-0.000020878
Loading maneuver chart data...
Computing Atmospheric mass density...
Loading historical data...
Loading historical data...
Loading historical data...
Loading historical data...
Loading historical data...
Loading historical data...
Loading historical data...

Documentation

Showing up to 5 results
|